Location: Endfield
(51.6667°N, 0.0667°W)
Time: 21:41:52
(UTC+00:00)

SL-8 R/B - Pass Details

Date: 19 May 2024
Orbit: 652 x 662 km, 48.4° (Epoch: 14 June)

Event Time Altitude Azimuth Distance (km) Brightness Sun altitude
Rises 23:29:08 0° 250° (WSW) 2,968 6.9 -18.0°
Reaches altitude 10° 23:31:31 10° 246° (WSW) 2,059 6.1 -18.1°
Maximum altitude 23:36:08 54° 170° (S) 794 3.7 -18.2°
Drops below altitude 10° 23:40:47 10° 93° (E) 2,068 6.2 -18.2°
Sets 23:43:10 0° 89° (E) 2,982 7.0 -18.2°
